Regional Weather Roundup
Issued by NWS Jackson, KY

Home | Current Version | Previous Version | Text Only | Print | Product List | Glossary On
Versions: 1 2 3 4 5 6 7 8 9 10 11 12 13 14 15 16 17 18 19 20 21 22 23 24 25 26 27 28 29 30 31 32 33 34 35 36 37 38 39 40 41 42 43 44 45 46 47 48 49 50
000
ASUS43 KJKL 230810
RWRJKL

EAST KENTUCKY HOURLY WEATHER ROUNDUP
NATIONAL WEATHER SERVICE JACKSON KY
400 AM EDT WED AUG 23 2017

NOTE: "FAIR" INDICATES FEW OR NO CLOUDS BELOW 12,000 FEET WITH
NO SIGNIFICANT WEATHER AND/OR OBSTRUCTIONS TO VISIBILITY.

* THESE REPORTS ARE NOT UNDER NWS QUALITY CONTROL AND MAY NOT
  REPORT WEATHER SUCH AS PRECIPITATION AND FOG.

KYZ079-080-083-085-087-088-110-112-115-119-120-230900
...EASTERN KENTUCKY...

CITY           SKY/WX    TMP DP  RH WIND       PRES   REMARKS
JACKSON        CLOUDY    70  68  93 VRB5      29.96F
LONDON         CLOUDY    70  69  97 W5        29.98S
SOMERSET*      CLOUDY    70  70 100 CALM      29.98F
MONTICELLO*    CLOUDY    71  70  96 NW7       30.00F
WILLIAMSBURG*  CLOUDY    68  68 100 CALM      29.97F
MIDDLESBORO*   CLOUDY    71  71 100 CALM      29.97S
HARLAN APT*    CLOUDY    68  66  94 CALM      29.98F
PIKE CO APT*   DRIZZLE   69  69 100 W3        29.97S
BIG SANDY APT* CLOUDY    71  71 100 W5        29.96F
MOREHEAD APT*  CLOUDY    70  68  94 NW7       29.97F FOG
$$

KYZ035-036-041-042-044-050-067-078-099-230900
...CENTRAL KENTUCKY...

CITY           SKY/WX    TMP DP  RH WIND       PRES   REMARKS
MT STERLING*   CLOUDY    70  70 100 N3        29.98S
FLEMING/MASON* CLOUDY    68  68  99 N6        29.97F
DANVILLE*      CLOUDY    70  68  94 N7        30.00R
LEXINGTON      CLOUDY    70  67  90 NW6       29.98S
FRANKFORT      CLOUDY    71  67  87 NW3       29.97S
LOUISVILLE     MOCLDY    71  63  75 NW8       29.99R
LEBANON*         N/A     68  68 100 NW3       30.00R FOG
GLASGOW*       CLOUDY    70  70 100 N6        30.00S
BOWLING GREEN  PTCLDY    72  71  97 CALM      30.00S
$$

KYZ091>093-OHZ055-061-077-WVZ005-015-034-035-042-230900
...SOUTHERN OHIO/WEST VIRGINIA...

CITY           SKY/WX    TMP DP  RH WIND       PRES   REMARKS
COVINGTON      MOCLDY    68  62  81 N9        29.98S
COLUMBUS       PTCLDY    64  57  78 NW7       29.95R
DAYTON         CLEAR     60  57  89 NW7       29.99S
WILMINGTON     PTCLDY    63  58  83 N5        29.98R
HUNTINGTON     CLOUDY    71  69  93 NW5       29.93S
CHARLESTON     CLOUDY    72  69  90 W7        29.92F
PINEVILLE*     CLOUDY    71  70  96 MISG      30.01F
BECKLEY        CLOUDY    68  66  93 NW5       29.98F
BLUEFIELD      CLOUDY    66  64  93 W12G22    30.02F
LOGAN CO APT*  CLOUDY    70  70 100 W8        29.96S FOG
$$

VAZ002-007-008-TNZ017-027-036-066-071-230900
...SOUTHWEST VIRGINIA/EAST TENNESSEE...

CITY           SKY/WX    TMP DP  RH WIND       PRES   REMARKS
WISE*            N/A    N/A N/A N/A CALM      30.02F
JONESVILLE*    PTSUNNY   72  70  94 CALM      29.98F
ABINGDON*      CLOUDY    73  67  81 CALM      29.98F
BRISTOL        CLOUDY    71  68  90 N6        29.96S
MORRISTOWN*    CLOUDY    75  70  83 CALM      29.95F
SEVIERVILLE*   MOSUNNY   77  68  73 W7        29.95S
KNOXVILLE      CLOUDY    75  69  81 SW7       29.95F
LAFOLLETTE*    CLOUDY    73  70  88 VRB5G12   30.00S
OAK RIDGE      CLOUDY    77  68  73 VRB3      29.96F
CROSSVILLE     CLOUDY    69  68  96 W7        30.02F
NASHVILLE      CLOUDY    72  70  93 NW7       29.99F
$$

...KEY TO REMARKS...
VSB - VISIBILITY IN MILES
WCI - WIND CHILL INDEX
HX  - HEAT INDEX

$$



USA.gov is the U.S. government's official web portal to all federal, state and local government web resources and services.